Search your local weather  

 

Hazardous Weather Conditions

No active alerts for CHICAGO, ILLINOIS

Current Conditions: CHICAGO, ILLINOIS

Fair


19.0 F

Last Updated on Dec 11 2019, 8:52 pm CST
Humidity: 65%
Wind Speed: N 0.0 mph
Barometer 30.52 in
Dewpoint: 9.0 F
Visibility: 10.00 mi
Precip: --
Heat Index: NA
Wind Chill: NA
Current conditions at:

Chicago / Wheeling, Pal-Waukee Airport, IL (KPWK)

Lat: 42.12083 Lon: -87.90472

Local Radar Image active severe weather and emergency alerts image image weather storm and storm spotter reports image weather observation monitoring service image
Local
Radar
Active
Alerts
Storm Reports Weather
Monitoring

5 Day Forecast for CHICAGO, ILLINOIS (60601)

Wednesday

Mostly Clear

High 26 °F
Wednesday
Night
Mostly Cloudy

Low 21 °F
Thursday

Mostly Cloudy

High 43 °F
Thursday
Night
Mostly Cloudy

Low 33 °F
Friday

Slight Chance of Rain
High 40 °F
Friday
Night
Chance of Rain/Snow Mix
Low 35 °F
Saturday

Chance of Snow
High 38 °F
Saturday
Night
Mostly Cloudy

Low 20 °F
Sunday

Mostly Cloudy

High 27 °F

Sign-up For Email & Text Message Weather Alert Notification Services



Advertise Here

Observation History for CHICAGO, ILLINOIS


Time Wind
(mph)
Vis
(mi)
Weather Precip (in) Temperature (F) Relative
Humidity
Wind
Chill
(°F)
Heat
Index
(°F)
Pressure
Air Dwpt altimeter
(in)
sea level
(mb)
8:52 pm CST N 0.0 10.00 Fair -- 19.0 9.0 65% NA NA 30.52 1034.7
7:52 pm CST N 0.0 10.00 Fair -- 19.0 8.1 62% NA NA 30.51 1034.5
6:52 pm CST N 0.0 10.00 Fair -- 20.0 8.1 60% NA NA 30.52 1034.7
5:52 pm CST N 0.0 10.00 Fair -- 21.0 6.1 52% NA NA 30.51 1034.6
4:52 pm CST N 0.0 10.00 Fair -- 23.0 6.1 48% NA NA 30.51 1034.4
3:52 pm CST W 4.6 10.00 Fair -- 25.0 3.9 40% 19 NA 30.50 1033.9
2:52 pm CST W 5.8 10.00 Fair -- 25.0 3.9 40% 18 NA 30.49 1033.5
1:52 pm CST 6.9 10.00 Fair -- 25.0 5.0 42% 17 NA 30.46 1032.5
12:52 pm CST W 9.2 G 18.4 10.00 Fair -- 24.0 5.0 44% 14 NA 30.45 1032.1
11:52 am CST W 11.5 10.00 A Few Clouds -- 23.0 7.0 50% 12 NA 30.43 1031.7
10:52 am CST W 13.8 10.00 Partly Cloudy -- 22.0 8.1 55% 9 NA 30.44 1031.9
9:52 am CST W 13.8 G 21.9 10.00 Partly Cloudy -- 20.0 8.1 60% 7 NA 30.43 1031.5
8:52 am CST W 6.9 10.00 Overcast -- 18.0 9.0 68% 9 NA 30.39 1030.4
7:52 am CST W 9.2 6.00 Overcast with Haze Trace 16.0 8.1 71% 4 NA 30.36 1029.3
6:52 am CST W 8.1 5.00 Light Snow Trace 16.0 6.1 65% 5 NA 30.35 1029.0
5:52 am CST SW 8.1 10.00 Overcast -- 15.0 3.9 61% 4 NA 30.32 1028.0
4:52 am CST W 8.1 10.00 A Few Clouds -- 14.0 3.0 61% 3 NA 30.31 1027.6
3:52 am CST W 9.2 10.00 Overcast -- 14.0 1.9 58% 2 NA 30.31 1027.4
2:52 am CST W 11.5 G 19.6 10.00 Mostly Cloudy -- 14.0 1.0 56% NA NA 30.30 1027.3
1:52 am CST W 12.7 G 21.9 10.00 Fair -- 15.0 3.9 61% 1 NA 30.31 1027.4
12:52 am CST W 12.7 G 20.7 10.00 Overcast -- 18.0 8.1 65% 5 NA 30.30 1027.1
11:52 pm CST W 9.2 G 19.6 10.00 Mostly Cloudy -- 18.0 7.0 62% 7 NA 30.29 1026.7
10:52 pm CST W 11.5 10.00 Mostly Cloudy -- 18.0 7.0 62% 5 NA 30.30 1027.3
9:52 pm CST W 9.2 10.00 Fair -- 18.0 6.1 59% 7 NA 30.30 1027.4

Regional Weather Observation

Chicago, Chicago-OHare International Airport, IL (KORD)

A Few Clouds
20.0 F

Chicago/Waukegan Regional Airport, IL (KUGN)

Fair
14.0 F

Chicago, Chicago Midway Airport, IL (KMDW)

Fair
22.0 F

Kenosha, Kenosha Regional Airport, WI (KENW)

Fair
15.0 F

Chicago / West Chicago, Dupage Airport, IL (KDPA)

Fair
15.0 F

Racine, Batten International Airport, WI (KRAC)

Fair
13.0 F

Advertise Here


Advertise Here